| time (UTC) | temp F | wind direction | speed MPH | gust MPH | rain 1hr in | rain 24hr in | rain mn in | humidity % | barometer mb |
| 20260906012621 | 76 | 146 | 0.0 | 0.0 | 0.00 | 0.02 | 0.02 | 87 | 1011.3 |
| 20260906012121 | 77 | 146 | 0.0 | 0.0 | 0.00 | 0.02 | 0.02 | 86 | 1011.3 |
| 20260906011621 | 77 | 146 | 0.0 | 0.0 | 0.00 | 0.02 | 0.02 | 85 | 1011.3 |
| 20260906011121 | 77 | 144 | 0.0 | 0.0 | 0.00 | 0.02 | 0.02 | 85 | 1011.2 |
| 20260906010623 | 77 | 144 | 0.0 | 0.0 | 0.00 | 0.02 | 0.02 | 85 | 1011.2 |
| 20260906010127 | 77 | 144 | 0.0 | 0.0 | 0.00 | 0.02 | 0.02 | 85 | 1011.1 |
| 20260906010122 | 77 | 144 | 0.0 | 0.0 | 0.00 | 0.02 | 0.02 | 85 | 1011.1 |
| 20260906005125 | 77 | 144 | 0.0 | 0.0 | 0.00 | 0.02 | 0.02 | 85 | 1011.0 |
| 20260906005121 | 77 | 144 | 0.0 | 0.0 | 0.00 | 0.02 | 0.02 | 85 | 1011.0 |
| 20260906004126 | 78 | 143 | 0.0 | 0.0 | 0.00 | 0.02 | 0.02 | 84 | 1011.0 |
| 20260906004122 | 78 | 144 | 0.0 | 0.0 | 0.00 | 0.02 | 0.02 | 85 | 1011.1 |
| 20260906003727 | 79 | 113 | 0.0 | 0.0 | 0.00 | 0.02 | 0.02 | 82 | 1011.1 |
| 20260906003122 | 78 | 121 | 0.0 | 0.0 | 0.00 | 0.02 | 0.02 | 83 | 1011.1 |
| 20260906002727 | 80 | 112 | 0.0 | 0.0 | 0.00 | 0.02 | 0.02 | 81 | 1011.2 |
| 20260906001621 | 80 | 101 | 0.0 | 0.0 | 0.00 | 0.02 | 0.02 | 80 | 1011.2 |
| 20260906001121 | 80 | 74 | 0.0 | 0.0 | 0.00 | 0.02 | 0.02 | 78 | 1011.4 |
| 20260906000621 | 80 | 74 | 0.0 | 0.0 | 0.00 | 0.02 | 0.02 | 78 | 1011.4 |
| 20260906000121 | 81 | 74 | 0.0 | 0.0 | 0.00 | 0.02 | 0.02 | 77 | 1011.4 |
| 20260905235619 | 81 | 128 | 0.0 | 0.0 | 0.00 | 0.02 | 0.02 | 75 | 1011.4 |
| 20260905235123 | 81 | 165 | 0.0 | 0.0 | 0.00 | 0.02 | 0.02 | 76 | 1011.4 |
| 20260905235119 | 81 | 182 | 0.0 | 0.0 | 0.00 | 0.02 | 0.02 | 76 | 1011.4 |
| 20260905234115 | 81 | 182 | 0.0 | 0.0 | 0.00 | 0.02 | 0.02 | 75 | 1011.5 |
| 20260905233616 | 81 | 182 | 0.0 | 0.0 | 0.00 | 0.02 | 0.02 | 74 | 1011.5 |
| 20260905233116 | 81 | 182 | 0.0 | 0.0 | 0.00 | 0.02 | 0.02 | 74 | 1011.4 |
| 20260905232614 | 81 | 182 | 0.0 | 0.0 | 0.00 | 0.02 | 0.02 | 74 | 1011.5 |
| 20260905232113 | 81 | 182 | 0.0 | 0.0 | 0.00 | 0.02 | 0.02 | 73 | 1011.5 |
| 20260905231614 | 82 | 190 | 0.0 | 0.0 | 0.00 | 0.02 | 0.02 | 73 | 1011.6 |
| 20260905231113 | 82 | 142 | 0.0 | 0.0 | 0.00 | 0.02 | 0.02 | 74 | 1011.6 |
| 20260905230610 | 82 | 142 | 0.0 | 0.0 | 0.00 | 0.02 | 0.02 | 74 | 1011.6 |
| 20260905230109 | 82 | 89 | 0.0 | 0.0 | 0.00 | 0.02 | 0.02 | 74 | 1011.6 |
| 20260905225609 | 83 | 152 | 0.0 | 0.0 | 0.00 | 0.02 | 0.02 | 74 | 1011.7 |
| 20260905225108 | 83 | 143 | 0.0 | 0.0 | 0.00 | 0.02 | 0.02 | 74 | 1011.9 |
| 20260905224607 | 83 | 228 | 0.0 | 0.0 | 0.00 | 0.02 | 0.02 | 73 | 1011.7 |
| 20260905224107 | 84 | 180 | 0.0 | 0.0 | 0.00 | 0.02 | 0.02 | 72 | 1011.6 |
| 20260905223611 | 84 | 178 | 0.0 | 0.0 | 0.00 | 0.02 | 0.02 | 72 | 1011.4 |
| 20260905223605 | 84 | 184 | 0.0 | 0.0 | 0.00 | 0.02 | 0.02 | 70 | 1011.5 |
| 20260905223105 | 84 | 135 | 0.0 | 0.0 | 0.00 | 0.02 | 0.02 | 71 | 1011.4 |
| 20260905222103 | 84 | 178 | 0.0 | 0.0 | 0.00 | 0.02 | 0.02 | 71 | 1011.4 |
| 20260905221605 | 84 | 178 | 0.0 | 0.0 | 0.02 | 0.02 | 0.02 | 74 | 1011.4 |
| 20260905221103 | 84 | 193 | 0.0 | 1.0 | 0.02 | 0.02 | 0.02 | 75 | 1011.4 |
| 20260905220604 | 83 | 193 | 0.0 | 1.0 | 0.02 | 0.02 | 0.02 | 75 | 1011.3 |
| 20260905220103 | 83 | 209 | 0.0 | 0.0 | 0.02 | 0.02 | 0.02 | 74 | 1011.3 |
| 20260905215601 | 83 | 207 | 0.0 | 0.0 | 0.02 | 0.02 | 0.02 | 74 | 1011.4 |
| 20260905215102 | 84 | 60 | 0.0 | 0.0 | 0.02 | 0.02 | 0.02 | 71 | 1011.2 |
| 20260905214601 | 85 | 59 | 0.0 | 0.0 | 0.02 | 0.02 | 0.02 | 70 | 1011.1 |
| 20260905214103 | 87 | 107 | 0.0 | 0.0 | 0.02 | 0.02 | 0.02 | 68 | 1011.0 |
| 20260905213601 | 89 | 120 | 0.0 | 0.0 | 0.02 | 0.02 | 0.02 | 67 | 1011.0 |
| 20260905213102 | 91 | 93 | 0.0 | 0.0 | 0.02 | 0.02 | 0.02 | 66 | 1010.9 |
| 20260905212601 | 92 | 58 | 0.0 | 0.0 | 0.02 | 0.02 | 0.02 | 61 | 1010.9 |
| 20260905212101 | 94 | 53 | 0.0 | 0.0 | 0.02 | 0.02 | 0.02 | 58 | 1011.0 |
| 20260905211600 | 94 | 339 | 0.0 | 0.0 | 0.00 | 0.00 | 0.00 | 52 | 1010.8 |
| 20260905211100 | 94 | 24 | 0.0 | 0.0 | 0.00 | 0.00 | 0.00 | 51 | 1010.8 |
| 20260905210559 | 94 | 251 | 0.0 | 0.0 | 0.00 | 0.00 | 0.00 | 52 | 1010.9 |
| 20260905210059 | 94 | 255 | 0.0 | 0.0 | 0.00 | 0.00 | 0.00 | 51 | 1011.0 |
| 20260905205559 | 94 | 276 | 0.0 | 0.0 | 0.00 | 0.00 | 0.00 | 51 | 1011.0 |
| 20260905204603 | 94 | 271 | 0.0 | 0.0 | 0.00 | 0.00 | 0.00 | 51 | 1011.0 |
| 20260905204559 | 94 | 253 | 0.0 | 0.0 | 0.00 | 0.00 | 0.00 | 51 | 1010.9 |
| 20260905203559 | 94 | 297 | 0.0 | 0.0 | 0.00 | 0.00 | 0.00 | 50 | 1011.1 |
| 20260905203058 | 94 | 294 | 0.0 | 0.0 | 0.00 | 0.00 | 0.00 | 51 | 1011.1 |
| 20260905202558 | 94 | 35 | 0.0 | 0.0 | 0.00 | 0.00 | 0.00 | 52 | 1011.2 |
| 20260905202058 | 93 | 322 | 0.0 | 0.0 | 0.00 | 0.00 | 0.00 | 52 | 1011.4 |
| 20260905201557 | 93 | 265 | 0.0 | 0.0 | 0.00 | 0.00 | 0.00 | 52 | 1011.5 |
| 20260905201057 | 94 | 286 | 0.0 | 0.0 | 0.00 | 0.00 | 0.00 | 51 | 1011.7 |
| 20260905200557 | 94 | 263 | 0.0 | 0.0 | 0.00 | 0.00 | 0.00 | 52 | 1011.6 |
| 20260905195604 | 94 | 347 | 0.0 | 0.0 | 0.00 | 0.00 | 0.00 | 51 | 1011.8 |
| 20260905195600 | 94 | 344 | 0.0 | 0.0 | 0.00 | 0.00 | 0.00 | 51 | 1011.8 |
| 20260905194555 | 94 | 48 | 0.0 | 0.0 | 0.00 | 0.00 | 0.00 | 51 | 1011.9 |
| 20260905194056 | 93 | 292 | 0.0 | 0.0 | 0.00 | 0.00 | 0.00 | 52 | 1012.0 |
| 20260905193555 | 93 | 240 | 0.0 | 0.0 | 0.00 | 0.00 | 0.00 | 52 | 1012.1 |
| 20260905193054 | 93 | 256 | 0.0 | 0.0 | 0.00 | 0.00 | 0.00 | 53 | 1012.1 |
| 20260905192555 | 93 | 302 | 0.0 | 0.0 | 0.00 | 0.00 | 0.00 | 53 | 1012.1 |
| 20260905192055 | 93 | 331 | 0.0 | 0.0 | 0.00 | 0.00 | 0.00 | 52 | 1012.2 |
| 20260905191701 | 92 | 272 | 0.0 | 0.0 | 0.00 | 0.00 | 0.00 | 53 | 1012.6 |
| 20260905191559 | 93 | 186 | 0.0 | 0.0 | 0.00 | 0.00 | 0.00 | 53 | 1012.5 |
| 20260905191554 | 93 | 183 | 0.0 | 0.0 | 0.00 | 0.00 | 0.00 | 52 | 1012.4 |
| 20260905190054 | 92 | 272 | 0.0 | 0.0 | 0.00 | 0.00 | 0.00 | 53 | 1012.7 |
| 20260905185555 | 92 | 165 | 0.0 | 0.0 | 0.00 | 0.00 | 0.00 | 54 | 1012.7 |
| 20260905185055 | 92 | 151 | 0.0 | 0.0 | 0.00 | 0.00 | 0.00 | 54 | 1012.8 |
| 20260905184554 | 92 | 238 | 0.0 | 0.0 | 0.00 | 0.00 | 0.00 | 55 | 1012.9 |
| 20260905184052 | 91 | 240 | 0.0 | 0.0 | 0.00 | 0.00 | 0.00 | 54 | 1013.0 |
| 20260905183556 | 91 | 49 | 0.0 | 0.0 | 0.00 | 0.00 | 0.00 | 55 | 1013.0 |
| 20260905183055 | 91 | 257 | 0.0 | 0.0 | 0.00 | 0.00 | 0.00 | 56 | 1013.0 |
| 20260905183050 | 91 | 49 | 0.0 | 0.0 | 0.00 | 0.00 | 0.00 | 55 | 1013.0 |
| 20260905182051 | 91 | 279 | 0.0 | 0.0 | 0.00 | 0.00 | 0.00 | 56 | 1013.1 |
| 20260905181551 | 91 | 237 | 0.0 | 0.0 | 0.00 | 0.00 | 0.00 | 56 | 1013.2 |
| 20260905181052 | 90 | 194 | 0.0 | 0.0 | 0.00 | 0.00 | 0.00 | 56 | 1013.3 |
| 20260905180550 | 90 | 194 | 0.0 | 0.0 | 0.00 | 0.00 | 0.00 | 57 | 1013.4 |
| 20260905180051 | 90 | 195 | 0.0 | 0.0 | 0.00 | 0.00 | 0.00 | 58 | 1013.4 |
| 20260905175551 | 89 | 134 | 0.0 | 0.0 | 0.00 | 0.00 | 0.00 | 58 | 1013.5 |
| 20260905175056 | 89 | 289 | 0.0 | 0.0 | 0.00 | 0.00 | 0.00 | 58 | 1013.6 |
| 20260905175051 | 89 | 289 | 0.0 | 0.0 | 0.00 | 0.00 | 0.00 | 59 | 1013.5 |
| 20260905174056 | 89 | 173 | 0.0 | 0.0 | 0.00 | 0.00 | 0.00 | 59 | 1013.7 |
| 20260905174051 | 89 | 239 | 0.0 | 0.0 | 0.00 | 0.00 | 0.00 | 59 | 1013.6 |
| 20260905173050 | 89 | 80 | 0.0 | 0.0 | 0.00 | 0.00 | 0.00 | 58 | 1013.8 |
| 20260905172555 | 88 | 287 | 0.0 | 0.0 | 0.00 | 0.00 | 0.00 | 58 | 1014.0 |
| 20260905172550 | 88 | 94 | 0.0 | 0.0 | 0.00 | 0.00 | 0.00 | 60 | 1014.0 |
| 20260905172157 | 88 | 186 | 0.0 | 0.0 | 0.00 | 0.00 | 0.00 | 59 | 1014.1 |
| 20260905171056 | 88 | 181 | 0.0 | 0.0 | 0.00 | 0.00 | 0.00 | 61 | 1013.9 |
| 20260905171051 | 88 | 161 | 0.0 | 0.0 | 0.00 | 0.00 | 0.00 | 60 | 1013.9 |
| 20260905170055 | 87 | 338 | 0.0 | 0.0 | 0.00 | 0.00 | 0.00 | 62 | 1014.2 |
| 20260905170050 | 87 | 137 | 0.0 | 0.0 | 0.00 | 0.00 | 0.00 | 62 | 1014.1 |
| 20260905165657 | 87 | 60 | 0.0 | 0.0 | 0.00 | 0.00 | 0.00 | 61 | 1014.2 |
| 20260905164550 | 87 | 80 | 0.0 | 0.0 | 0.00 | 0.00 | 0.00 | 62 | 1014.2 |
| 20260905164051 | 86 | 114 | 0.0 | 0.0 | 0.00 | 0.00 | 0.00 | 63 | 1014.2 |
| 20260905163551 | 86 | 60 | 0.0 | 0.0 | 0.00 | 0.00 | 0.00 | 62 | 1014.3 |
| 20260905163056 | 86 | 108 | 0.0 | 0.0 | 0.00 | 0.00 | 0.00 | 63 | 1014.3 |
| 20260905163051 | 86 | 153 | 0.0 | 0.0 | 0.00 | 0.00 | 0.00 | 63 | 1014.3 |
| 20260905162657 | 85 | 132 | 0.0 | 0.0 | 0.00 | 0.00 | 0.00 | 66 | 1014.5 |
| 20260905162051 | 86 | 107 | 0.0 | 0.0 | 0.00 | 0.00 | 0.00 | 65 | 1014.4 |
| 20260905161051 | 85 | 126 | 0.0 | 0.0 | 0.00 | 0.00 | 0.00 | 66 | 1014.6 |
| 20260905160548 | 85 | 343 | 0.0 | 0.0 | 0.00 | 0.00 | 0.00 | 66 | 1014.4 |
| 20260905160048 | 84 | 32 | 0.0 | 0.0 | 0.00 | 0.00 | 0.00 | 65 | 1014.4 |
| 20260905155546 | 84 | 76 | 0.0 | 0.0 | 0.00 | 0.00 | 0.00 | 66 | 1014.4 |
| 20260905155046 | 84 | 113 | 0.0 | 0.0 | 0.00 | 0.00 | 0.00 | 67 | 1014.4 |
| 20260905154546 | 84 | 18 | 0.0 | 0.0 | 0.00 | 0.00 | 0.00 | 67 | 1014.6 |
| 20260905154046 | 83 | 87 | 0.0 | 0.0 | 0.00 | 0.00 | 0.00 | 67 | 1014.6 |
| 20260905153552 | 83 | 92 | 0.0 | 0.0 | 0.00 | 0.00 | 0.00 | 70 | 1014.8 |
| 20260905153548 | 83 | 113 | 0.0 | 0.0 | 0.00 | 0.00 | 0.00 | 69 | 1014.7 |
| 20260905152547 | 82 | 40 | 0.0 | 0.0 | 0.00 | 0.00 | 0.00 | 70 | 1015.0 |
| 20260905152046 | 82 | 84 | 0.0 | 0.0 | 0.00 | 0.00 | 0.00 | 70 | 1015.0 |
| 20260905151550 | 82 | 59 | 0.0 | 0.0 | 0.00 | 0.00 | 0.00 | 70 | 1015.1 |
| 20260905151546 | 82 | 123 | 0.0 | 0.0 | 0.00 | 0.00 | 0.00 | 71 | 1015.2 |
| 20260905150550 | 82 | 117 | 0.0 | 0.0 | 0.00 | 0.00 | 0.00 | 71 | 1015.1 |
| 20260905150546 | 82 | 39 | 0.0 | 0.0 | 0.00 | 0.00 | 0.00 | 70 | 1015.1 |
| 20260905145547 | 82 | 66 | 0.0 | 0.0 | 0.00 | 0.00 | 0.00 | 72 | 1015.1 |
| 20260905145046 | 81 | 40 | 0.0 | 0.0 | 0.00 | 0.00 | 0.00 | 72 | 1015.1 |
| 20260905144544 | 81 | 42 | 0.0 | 0.0 | 0.00 | 0.00 | 0.00 | 72 | 1015.2 |
| 20260905144044 | 81 | 103 | 0.0 | 0.0 | 0.00 | 0.00 | 0.00 | 72 | 1015.2 |
| 20260905143550 | 81 | 52 | 0.0 | 0.0 | 0.00 | 0.00 | 0.00 | 70 | 1015.2 |
| 20260905143546 | 81 | 34 | 0.0 | 0.0 | 0.00 | 0.00 | 0.00 | 71 | 1015.1 |
| 20260905143149 | 81 | 85 | 0.0 | 0.0 | 0.00 | 0.00 | 0.00 | 73 | 1015.1 |
| 20260905142047 | 81 | 67 | 0.0 | 0.0 | 0.00 | 0.00 | 0.00 | 77 | 1015.1 |
| 20260905142043 | 81 | 28 | 0.0 | 0.0 | 0.00 | 0.00 | 0.00 | 73 | 1015.1 |
| 20260905141042 | 81 | 78 | 0.0 | 0.0 | 0.00 | 0.00 | 0.00 | 78 | 1015.0 |
| 20260905140542 | 80 | 54 | 0.0 | 0.0 | 0.00 | 0.00 | 0.00 | 79 | 1015.0 |
| 20260905140042 | 80 | 46 | 0.0 | 0.0 | 0.00 | 0.00 | 0.00 | 82 | 1015.0 |
| 20260905135542 | 80 | 43 | 0.0 | 0.0 | 0.00 | 0.00 | 0.00 | 85 | 1014.9 |
| 20260905135043 | 79 | 88 | 0.0 | 0.0 | 0.00 | 0.00 | 0.00 | 87 | 1014.8 |
| 20260905134542 | 79 | 68 | 0.0 | 0.0 | 0.00 | 0.00 | 0.00 | 88 | 1015.1 |
| 20260905134042 | 78 | 71 | 0.0 | 0.0 | 0.00 | 0.00 | 0.00 | 89 | 1014.7 |
| 20260905133542 | 78 | 67 | 0.0 | 0.0 | 0.00 | 0.00 | 0.00 | 90 | 1014.6 |
| 20260905133040 | 77 | 84 | 0.0 | 0.0 | 0.00 | 0.00 | 0.00 | 91 | 1014.6 |
| 20260905132540 | 76 | 85 | 0.0 | 0.0 | 0.00 | 0.00 | 0.00 | 91 | 1014.6 |
| 20260905132039 | 76 | 63 | 0.0 | 0.0 | 0.00 | 0.00 | 0.00 | 92 | 1014.6 |
| 20260905131540 | 75 | 65 | 0.0 | 0.0 | 0.00 | 0.00 | 0.00 | 92 | 1014.6 |
| 20260905131039 | 75 | 84 | 0.0 | 0.0 | 0.00 | 0.00 | 0.00 | 92 | 1014.7 |
| 20260905130540 | 74 | 66 | 0.0 | 0.0 | 0.00 | 0.00 | 0.00 | 92 | 1014.7 |
| 20260905130040 | 74 | 66 | 0.0 | 0.0 | 0.00 | 0.00 | 0.00 | 92 | 1014.9 |
| 20260905125540 | 74 | 81 | 0.0 | 0.0 | 0.00 | 0.00 | 0.00 | 92 | 1014.8 |
| 20260905125040 | 74 | 71 | 0.0 | 0.0 | 0.00 | 0.00 | 0.00 | 92 | 1014.8 |
| 20260905124540 | 74 | 69 | 0.0 | 0.0 | 0.00 | 0.00 | 0.00 | 92 | 1014.9 |
| 20260905124038 | 74 | 69 | 0.0 | 0.0 | 0.00 | 0.00 | 0.00 | 92 | 1015.0 |
| 20260905123540 | 74 | 89 | 0.0 | 0.0 | 0.00 | 0.00 | 0.00 | 92 | 1014.6 |
| 20260905123038 | 74 | 88 | 0.0 | 0.0 | 0.00 | 0.00 | 0.00 | 92 | 1014.9 |
| 20260905122538 | 74 | 88 | 0.0 | 0.0 | 0.00 | 0.00 | 0.00 | 92 | 1014.6 |
| 20260905122035 | 74 | 88 | 0.0 | 0.0 | 0.00 | 0.00 | 0.00 | 92 | 1014.6 |
| 20260905121536 | 74 | 88 | 0.0 | 0.0 | 0.00 | 0.00 | 0.00 | 92 | 1014.5 |
| 20260905121035 | 74 | 88 | 0.0 | 0.0 | 0.00 | 0.00 | 0.00 | 92 | 1014.4 |
| 20260905120536 | 73 | 88 | 0.0 | 0.0 | 0.00 | 0.00 | 0.00 | 92 | 1014.3 |
| 20260905120034 | 73 | 88 | 0.0 | 0.0 | 0.00 | 0.00 | 0.00 | 92 | 1014.3 |
| 20260905115534 | 73 | 88 | 0.0 | 0.0 | 0.00 | 0.00 | 0.00 | 92 | 1014.2 |
| 20260905115032 | 73 | 88 | 0.0 | 0.0 | 0.00 | 0.00 | 0.00 | 92 | 1014.2 |
| 20260905114532 | 73 | 88 | 0.0 | 0.0 | 0.00 | 0.00 | 0.00 | 92 | 1014.1 |
| 20260905114032 | 73 | 80 | 0.0 | 0.0 | 0.00 | 0.00 | 0.00 | 92 | 1013.9 |
| 20260905113536 | 73 | 80 | 0.0 | 0.0 | 0.00 | 0.00 | 0.00 | 92 | 1013.9 |
| 20260905113532 | 73 | 80 | 0.0 | 0.0 | 0.00 | 0.00 | 0.00 | 92 | 1014.0 |
| 20260905112532 | 73 | 80 | 0.0 | 0.0 | 0.00 | 0.00 | 0.00 | 92 | 1013.9 |
| 20260905112032 | 73 | 80 | 0.0 | 0.0 | 0.00 | 0.00 | 0.00 | 92 | 1013.8 |
| 20260905111532 | 73 | 80 | 0.0 | 0.0 | 0.00 | 0.00 | 0.00 | 92 | 1013.8 |
| 20260905111035 | 73 | 80 | 0.0 | 0.0 | 0.00 | 0.00 | 0.00 | 92 | 1013.8 |
| 20260905111029 | 73 | 80 | 0.0 | 0.0 | 0.00 | 0.00 | 0.00 | 92 | 1013.9 |
| 20260905110029 | 73 | 80 | 0.0 | 0.0 | 0.00 | 0.00 | 0.00 | 92 | 1013.7 |
| 20260905105528 | 73 | 80 | 0.0 | 0.0 | 0.00 | 0.00 | 0.00 | 92 | 1013.6 |
| 20260905105029 | 73 | 80 | 0.0 | 0.0 | 0.00 | 0.00 | 0.00 | 92 | 1013.6 |
| 20260905104527 | 73 | 80 | 0.0 | 0.0 | 0.00 | 0.00 | 0.00 | 92 | 1013.7 |
| 20260905104024 | 73 | 80 | 0.0 | 0.0 | 0.00 | 0.00 | 0.00 | 92 | 1013.6 |
| 20260905103524 | 73 | 80 | 0.0 | 0.0 | 0.00 | 0.00 | 0.00 | 92 | 1013.6 |
| 20260905103027 | 74 | 80 | 0.0 | 0.0 | 0.00 | 0.00 | 0.00 | 92 | 1013.8 |
| 20260905103023 | 74 | 80 | 0.0 | 0.0 | 0.00 | 0.00 | 0.00 | 92 | 1013.7 |
| 20260905102027 | 74 | 80 | 0.0 | 0.0 | 0.00 | 0.00 | 0.00 | 92 | 1013.7 |
| 20260905102023 | 74 | 80 | 0.0 | 0.0 | 0.00 | 0.00 | 0.00 | 92 | 1013.7 |
| 20260905101027 | 74 | 80 | 0.0 | 0.0 | 0.00 | 0.00 | 0.00 | 92 | 1013.5 |
| 20260905101023 | 74 | 80 | 0.0 | 0.0 | 0.00 | 0.00 | 0.00 | 92 | 1013.6 |
| 20260905100023 | 74 | 80 | 0.0 | 0.0 | 0.00 | 0.00 | 0.00 | 92 | 1013.4 |
| 20260905095524 | 74 | 80 | 0.0 | 0.0 | 0.00 | 0.00 | 0.00 | 92 | 1013.5 |
| 20260905095028 | 74 | 80 | 0.0 | 0.0 | 0.00 | 0.00 | 0.00 | 92 | 1013.3 |
| 20260905095023 | 74 | 80 | 0.0 | 0.0 | 0.00 | 0.00 | 0.00 | 92 | 1013.4 |
| 20260905094523 | 74 | 80 | 0.0 | 0.0 | 0.00 | 0.00 | 0.00 | 92 | 1013.4 |
| 20260905093525 | 74 | 80 | 0.0 | 0.0 | 0.00 | 0.00 | 0.00 | 92 | 1013.3 |
| 20260905093023 | 74 | 80 | 0.0 | 0.0 | 0.00 | 0.00 | 0.00 | 92 | 1013.2 |
| 20260905092525 | 74 | 80 | 0.0 | 0.0 | 0.00 | 0.00 | 0.00 | 92 | 1013.2 |
| 20260905092023 | 74 | 80 | 0.0 | 0.0 | 0.00 | 0.00 | 0.00 | 92 | 1013.2 |
| 20260905091528 | 74 | 80 | 0.0 | 0.0 | 0.00 | 0.00 | 0.00 | 92 | 1013.1 |
| 20260905091523 | 74 | 80 | 0.0 | 0.0 | 0.00 | 0.00 | 0.00 | 92 | 1013.1 |
| 20260905091130 | 74 | 80 | 0.0 | 0.0 | 0.00 | 0.00 | 0.00 | 92 | 1013.1 |
| 20260905090024 | 74 | 80 | 0.0 | 0.0 | 0.00 | 0.00 | 0.00 | 92 | 1013.1 |
| 20260905085521 | 74 | 80 | 0.0 | 0.0 | 0.00 | 0.00 | 0.00 | 92 | 1013.1 |
| 20260905085022 | 74 | 80 | 0.0 | 0.0 | 0.00 | 0.00 | 0.00 | 92 | 1013.0 |
| 20260905084521 | 75 | 80 | 0.0 | 0.0 | 0.00 | 0.00 | 0.00 | 92 | 1013.0 |
| 20260905084025 | 75 | 80 | 0.0 | 0.0 | 0.00 | 0.00 | 0.00 | 92 | 1013.0 |
| 20260905084020 | 75 | 80 | 0.0 | 0.0 | 0.00 | 0.00 | 0.00 | 92 | 1013.1 |
| 20260905083019 | 75 | 80 | 0.0 | 0.0 | 0.00 | 0.00 | 0.00 | 92 | 1013.0 |
| 20260905082517 | 75 | 80 | 0.0 | 0.0 | 0.00 | 0.00 | 0.00 | 92 | 1013.0 |
| 20260905082021 | 75 | 80 | 0.0 | 0.0 | 0.00 | 0.00 | 0.00 | 92 | 1012.9 |
| 20260905082016 | 75 | 80 | 0.0 | 0.0 | 0.00 | 0.00 | 0.00 | 92 | 1013.0 |
| 20260905081015 | 75 | 80 | 0.0 | 0.0 | 0.00 | 0.00 | 0.00 | 92 | 1012.9 |
| 20260905080516 | 75 | 80 | 0.0 | 0.0 | 0.00 | 0.00 | 0.00 | 92 | 1012.9 |
| 20260905080015 | 75 | 80 | 0.0 | 0.0 | 0.00 | 0.00 | 0.00 | 92 | 1013.1 |
| 20260905075521 | 75 | 80 | 0.0 | 0.0 | 0.00 | 0.00 | 0.00 | 92 | 1013.1 |
| 20260905075517 | 75 | 80 | 0.0 | 0.0 | 0.00 | 0.00 | 0.00 | 92 | 1013.1 |
| 20260905074517 | 75 | 80 | 0.0 | 0.0 | 0.00 | 0.00 | 0.00 | 92 | 1013.3 |
| 20260905074513 | 75 | 80 | 0.0 | 0.0 | 0.00 | 0.00 | 0.00 | 92 | 1013.2 |
| 20260905073519 | 76 | 80 | 0.0 | 0.0 | 0.00 | 0.00 | 0.00 | 91 | 1013.6 |
| 20260905073512 | 75 | 80 | 0.0 | 0.0 | 0.00 | 0.00 | 0.00 | 92 | 1013.4 |
| 20260905073013 | 75 | 80 | 0.0 | 0.0 | 0.00 | 0.00 | 0.00 | 91 | 1013.4 |
| 20260905072013 | 76 | 80 | 0.0 | 0.0 | 0.00 | 0.00 | 0.00 | 92 | 1013.6 |
| 20260905071512 | 76 | 80 | 0.0 | 0.0 | 0.00 | 0.00 | 0.00 | 92 | 1013.6 |
| 20260905071013 | 76 | 80 | 0.0 | 0.0 | 0.00 | 0.00 | 0.00 | 92 | 1013.6 |
| 20260905070512 | 76 | 80 | 0.0 | 0.0 | 0.00 | 0.00 | 0.00 | 92 | 1013.7 |
| 20260905070013 | 76 | 80 | 0.0 | 0.0 | 0.00 | 0.00 | 0.00 | 92 | 1013.8 |
| 20260905070009 | 76 | 80 | 0.0 | 0.0 | 0.00 | 0.00 | 0.00 | 92 | 1013.7 |
| 20260905065006 | 76 | 80 | 0.0 | 0.0 | 0.00 | 0.00 | 0.00 | 92 | 1013.8 |
| 20260905064509 | 76 | 80 | 0.0 | 0.0 | 0.00 | 0.00 | 0.00 | 91 | 1013.9 |
| 20260905064008 | 76 | 80 | 0.0 | 0.0 | 0.00 | 0.00 | 0.00 | 92 | 1014.0 |
| 20260905063506 | 76 | 80 | 0.0 | 0.0 | 0.00 | 0.00 | 0.00 | 92 | 1014.1 |
| 20260905063006 | 76 | 80 | 0.0 | 0.0 | 0.00 | 0.00 | 0.00 | 92 | 1014.1 |
| 20260905062506 | 76 | 80 | 0.0 | 0.0 | 0.00 | 0.00 | 0.00 | 92 | 1014.2 |
| 20260905062007 | 76 | 80 | 0.0 | 0.0 | 0.00 | 0.00 | 0.00 | 91 | 1014.2 |
| 20260905061506 | 76 | 80 | 0.0 | 0.0 | 0.00 | 0.00 | 0.00 | 91 | 1014.2 |
| 20260905061006 | 76 | 80 | 0.0 | 0.0 | 0.00 | 0.00 | 0.00 | 91 | 1014.3 |
| 20260905060506 | 76 | 80 | 0.0 | 0.0 | 0.00 | 0.00 | 0.00 | 91 | 1014.3 |
| 20260905060006 | 76 | 80 | 0.0 | 0.0 | 0.00 | 0.00 | 0.00 | 92 | 1014.3 |
| 20260905055507 | 76 | 80 | 0.0 | 0.0 | 0.00 | 0.00 | 0.00 | 92 | 1014.4 |
| 20260905055005 | 76 | 80 | 0.0 | 0.0 | 0.00 | 0.00 | 0.00 | 92 | 1014.4 |
| 20260905054505 | 76 | 80 | 0.0 | 0.0 | 0.00 | 0.00 | 0.00 | 91 | 1014.4 |
| 20260905054005 | 76 | 80 | 0.0 | 0.0 | 0.00 | 0.00 | 0.00 | 91 | 1014.4 |
| 20260905053505 | 76 | 80 | 0.0 | 0.0 | 0.00 | 0.00 | 0.00 | 91 | 1014.4 |
| 20260905053004 | 77 | 80 | 0.0 | 0.0 | 0.00 | 0.00 | 0.00 | 91 | 1014.3 |
| 20260905052510 | 77 | 80 | 0.0 | 0.0 | 0.00 | 0.00 | 0.00 | 91 | 1014.5 |
| 20260905052504 | 77 | 80 | 0.0 | 0.0 | 0.00 | 0.00 | 0.00 | 91 | 1014.4 |
| 20260905052004 | 77 | 80 | 0.0 | 0.0 | 0.00 | 0.00 | 0.00 | 91 | 1014.4 |
| 20260905051504 | 77 | 80 | 0.0 | 0.0 | 0.00 | 0.00 | 0.00 | 91 | 1014.4 |
| 20260905050504 | 77 | 80 | 0.0 | 0.0 | 0.00 | 0.00 | 0.00 | 91 | 1014.4 |
| 20260905050004 | 77 | 80 | 0.0 | 0.0 | 0.00 | 0.00 | 0.00 | 91 | 1014.4 |
| 20260905045506 | 77 | 88 | 0.0 | 0.0 | 0.00 | 0.00 | 0.00 | 91 | 1014.4 |
| 20260905045502 | 77 | 82 | 0.0 | 0.0 | 0.00 | 0.00 | 0.00 | 91 | 1014.4 |
| 20260905044503 | 77 | 84 | 0.0 | 0.0 | 0.00 | 0.00 | 0.00 | 91 | 1014.4 |
| 20260905044003 | 78 | 88 | 0.0 | 0.0 | 0.00 | 0.00 | 0.00 | 91 | 1014.4 |
| 20260905043502 | 78 | 88 | 0.0 | 0.0 | 0.00 | 0.00 | 0.00 | 91 | 1014.4 |
| 20260905043003 | 78 | 84 | 0.0 | 0.0 | 0.00 | 0.00 | 0.00 | 91 | 1014.4 |
| 20260905042502 | 78 | 84 | 0.0 | 0.0 | 0.00 | 0.00 | 0.00 | 90 | 1014.4 |
| 20260905042003 | 78 | 84 | 0.0 | 0.0 | 0.00 | 0.00 | 0.00 | 90 | 1014.4 |
| 20260905041503 | 78 | 84 | 0.0 | 0.0 | 0.00 | 0.00 | 0.00 | 90 | 1014.4 |
| 20260905041002 | 78 | 84 | 0.0 | 0.0 | 0.00 | 0.00 | 0.00 | 90 | 1014.4 |
| 20260905040500 | 78 | 84 | 0.0 | 0.0 | 0.00 | 0.00 | 0.00 | 90 | 1014.5 |
| 20260905040000 | 78 | 84 | 0.0 | 0.0 | 0.00 | 0.00 | 0.00 | 90 | 1014.5 |
| 20260905035500 | 78 | 84 | 0.0 | 0.0 | 0.00 | 0.00 | 0.00 | 90 | 1014.5 |
| 20260905035000 | 79 | 84 | 0.0 | 0.0 | 0.00 | 0.00 | 0.00 | 90 | 1014.4 |
| 20260905034500 | 79 | 84 | 0.0 | 0.0 | 0.00 | 0.00 | 0.00 | 90 | 1014.4 |
| 20260905034005 | 79 | 84 | 0.0 | 0.0 | 0.00 | 0.00 | 0.00 | 90 | 1014.4 |
| 20260905034001 | 79 | 84 | 0.0 | 0.0 | 0.00 | 0.00 | 0.00 | 90 | 1014.4 |
| 20260905033607 | 79 | 84 | 0.0 | 0.0 | 0.00 | 0.00 | 0.00 | 89 | 1014.5 |
| 20260905033000 | 79 | 84 | 0.0 | 0.0 | 0.00 | 0.00 | 0.00 | 90 | 1014.4 |
| 20260905032500 | 79 | 84 | 0.0 | 0.0 | 0.00 | 0.00 | 0.00 | 89 | 1014.4 |
| 20260905032105 | 79 | 84 | 0.0 | 0.0 | 0.00 | 0.00 | 0.00 | 89 | 1014.4 |
| 20260905030959 | 79 | 84 | 0.0 | 0.0 | 0.00 | 0.00 | 0.00 | 89 | 1014.4 |
| 20260905030458 | 79 | 84 | 0.0 | 0.0 | 0.00 | 0.00 | 0.00 | 89 | 1014.5 |
| 20260905025957 | 80 | 84 | 0.0 | 0.0 | 0.00 | 0.00 | 0.00 | 88 | 1014.5 |
| 20260905025458 | 80 | 84 | 0.0 | 0.0 | 0.00 | 0.00 | 0.00 | 89 | 1014.6 |
| 20260905024958 | 80 | 84 | 0.0 | 0.0 | 0.00 | 0.00 | 0.00 | 89 | 1014.5 |
| 20260905024457 | 80 | 84 | 0.0 | 0.0 | 0.00 | 0.00 | 0.00 | 88 | 1014.4 |
| 20260905023958 | 80 | 84 | 0.0 | 0.0 | 0.00 | 0.00 | 0.00 | 88 | 1014.5 |
| 20260905023458 | 80 | 84 | 0.0 | 0.0 | 0.00 | 0.00 | 0.00 | 88 | 1014.5 |
| 20260905022955 | 80 | 84 | 0.0 | 0.0 | 0.00 | 0.00 | 0.00 | 88 | 1014.3 |
| 20260905022454 | 80 | 84 | 0.0 | 0.0 | 0.00 | 0.00 | 0.00 | 88 | 1014.3 |
| 20260905022001 | 80 | 159 | 0.0 | 0.0 | 0.00 | 0.00 | 0.00 | 87 | 1014.3 |
| 20260905021954 | 80 | 159 | 0.0 | 0.0 | 0.00 | 0.00 | 0.00 | 87 | 1014.4 |
| 20260905020953 | 80 | 159 | 0.0 | 0.0 | 0.00 | 0.00 | 0.00 | 86 | 1014.2 |
| 20260905020451 | 80 | 159 | 0.0 | 0.0 | 0.00 | 0.00 | 0.00 | 87 | 1014.2 |
| 20260905015952 | 80 | 159 | 0.0 | 0.0 | 0.00 | 0.00 | 0.00 | 86 | 1014.1 |
| 20260905015459 | 80 | 159 | 0.0 | 0.0 | 0.00 | 0.00 | 0.00 | 86 | 1013.8 |
| 20260905015451 | 80 | 159 | 0.0 | 0.0 | 0.00 | 0.00 | 0.00 | 86 | 1013.9 |
| 20260905014953 | 80 | 159 | 0.0 | 0.0 | 0.00 | 0.00 | 0.00 | 86 | 1013.9 |
| 20260905013952 | 81 | 159 | 0.0 | 0.0 | 0.00 | 0.00 | 0.00 | 86 | 1013.8 |
| 20260905013450 | 81 | 159 | 0.0 | 0.0 | 0.00 | 0.00 | 0.00 | 85 | 1013.7 |
| 20260905012951 | 81 | 159 | 0.0 | 0.0 | 0.00 | 0.00 | 0.00 | 85 | 1013.7 |